Time,TemperatureF,DewpointF,PressureIn,WindDirection,WindDirectionDegrees,WindSpeedMPH,WindSpeedGustMPH,Humidity,HourlyPrecipIn,Conditions,Clouds,dailyrainin,SoftwareType,DateUTC
2013-03-31 00:00:00,33.1,32.3,29.94,West,270,0.0,2.0,97,0.00,,,0.00,VWS V14.01,2013-03-31 05:00:00,
2013-03-31 00:01:00,33.1,32.3,29.94,WSW,248,0.0,1.3,97,0.00,,,0.00,VWS V14.01,2013-03-31 05:01:00,
2013-03-31 00:03:00,33.1,32.3,29.97,West,270,1.6,1.6,97,0.00,,,0.00,VWS V14.01,2013-03-31 05:03:00,
2013-03-31 00:04:00,32.9,32.1,29.94,SW,225,0.9,1.6,97,0.00,,,0.00,VWS V14.01,2013-03-31 05:04:00,
2013-03-31 00:05:00,32.9,32.1,29.94,WSW,248,2.5,2.5,97,0.00,,,0.00,VWS V14.01,2013-03-31 05:05:00,
2013-03-31 00:06:00,32.9,31.9,29.94,WSW,248,2.7,2.7,96,0.00,,,0.00,VWS V14.01,2013-03-31 05:06:00,
2013-03-31 00:07:00,33.1,32.1,29.94,West,270,0.9,3.4,96,0.00,,,0.00,VWS V14.01,2013-03-31 05:07:00,
2013-03-31 00:08:00,32.9,32.1,29.94,West,270,0.0,0.9,97,0.00,,,0.00,VWS V14.01,2013-03-31 05:08:00,
2013-03-31 00:09:00,33.1,32.3,29.94,SW,225,2.0,2.9,97,0.00,,,0.00,VWS V14.01,2013-03-31 05:09:00,
2013-03-31 00:10:00,32.9,32.1,29.94,SSW,202,2.9,2.9,97,0.00,,,0.00,VWS V14.01,2013-03-31 05:10:00,
2013-03-31 00:11:00,33.1,32.3,29.94,WSW,248,1.6,2.9,97,0.00,,,0.00,VWS V14.01,2013-03-31 05:11:00,
2013-03-31 00:12:00,33.1,32.3,29.94,WNW,292,2.0,2.5,97,0.00,,,0.00,VWS V14.01,2013-03-31 05:12:00,
2013-03-31 00:13:00,33.1,32.3,29.94,West,270,2.7,2.7,97,0.00,,,0.00,VWS V14.01,2013-03-31 05:13:00,
2013-03-31 00:14:00,33.1,32.3,29.94,West,270,2.5,2.7,97,0.00,,,0.00,VWS V14.01,2013-03-31 05:14:00,
2013-03-31 00:15:00,33.1,32.3,29.94,WSW,248,2.7,3.8,97,0.00,,,0.00,VWS V14.01,2013-03-31 05:15:00,
2013-03-31 00:16:00,33.1,32.3,29.94,WSW,248,3.6,3.8,97,0.00,,,0.00,VWS V14.01,2013-03-31 05:16:00,
2013-03-31 00:17:00,33.1,32.3,29.94,SSW,202,4.3,4.3,97,0.00,,,0.00,VWS V14.01,2013-03-31 05:17:00,
2013-03-31 00:18:00,33.1,32.3,29.94,WSW,248,3.1,4.7,97,0.00,,,0.00,VWS V14.01,2013-03-31 05:18:00,
2013-03-31 00:19:00,33.1,32.3,29.94,WSW,248,2.7,3.1,97,0.00,,,0.00,VWS V14.01,2013-03-31 05:19:00,
2013-03-31 00:20:00,33.1,32.6,29.94,WSW,248,1.6,2.2,98,0.00,,,0.00,VWS V14.01,2013-03-31 05:20:00,
2013-03-31 00:21:00,33.1,32.6,29.94,WSW,248,1.6,2.2,98,0.00,,,0.00,VWS V14.01,2013-03-31 05:21:00,
2013-03-31 00:22:00,33.1,32.6,29.94,SW,225,2.7,2.7,98,0.00,,,0.00,VWS V14.01,2013-03-31 05:22:00,
2013-03-31 00:23:00,33.1,32.6,29.94,NW,315,0.0,4.0,98,0.00,,,0.00,VWS V14.01,2013-03-31 05:23:00,
2013-03-31 00:24:00,33.1,32.6,29.94,West,270,1.6,1.6,98,0.00,,,0.00,VWS V14.01,2013-03-31 05:24:00,
2013-03-31 00:25:00,33.1,32.6,29.94,WSW,248,2.2,2.5,98,0.00,,,0.00,VWS V14.01,2013-03-31 05:25:00,
2013-03-31 00:26:00,33.1,32.6,29.94,West,270,2.2,2.5,98,0.00,,,0.00,VWS V14.01,2013-03-31 05:26:00,
2013-03-31 00:27:00,33.1,32.6,29.94,WSW,248,4.3,4.3,98,0.00,,,0.00,VWS V14.01,2013-03-31 05:27:00,
2013-03-31 00:28:00,33.1,32.6,29.94,South,180,2.5,4.3,98,0.00,,,0.00,VWS V14.01,2013-03-31 05:28:00,
2013-03-31 00:29:00,33.1,32.6,29.94,West,270,2.0,2.9,98,0.00,,,0.00,VWS V14.01,2013-03-31 05:29:00,
2013-03-31 00:30:00,33.1,32.6,29.94,WSW,248,3.6,3.6,98,0.00,,,0.00,VWS V14.01,2013-03-31 05:30:00,
2013-03-31 00:31:00,33.1,32.6,29.94,WNW,292,3.1,3.6,98,0.00,,,0.00,VWS V14.01,2013-03-31 05:31:00,
2013-03-31 00:32:00,33.1,32.6,29.94,WSW,248,1.3,3.1,98,0.00,,,0.00,VWS V14.01,2013-03-31 05:32:00,
2013-03-31 00:33:00,33.1,32.6,29.94,SSW,202,3.1,3.4,98,0.00,,,0.00,VWS V14.01,2013-03-31 05:33:00,
2013-03-31 00:34:00,33.1,32.6,29.94,South,180,2.9,4.9,98,0.00,,,0.00,VWS V14.01,2013-03-31 05:34:00,
2013-03-31 00:35:00,33.1,32.6,29.94,SSW,202,1.6,1.6,98,0.00,,,0.00,VWS V14.01,2013-03-31 05:35:00,
2013-03-31 00:36:00,33.1,32.6,29.94,SSW,202,1.6,1.6,98,0.00,,,0.00,VWS V14.01,2013-03-31 05:36:00,
2013-03-31 00:37:00,33.1,32.6,29.94,SW,225,2.9,3.1,98,0.00,,,0.00,VWS V14.01,2013-03-31 05:37:00,
2013-03-31 00:38:00,33.1,32.6,29.94,West,270,2.5,2.9,98,0.00,,,0.00,VWS V14.01,2013-03-31 05:38:00,
2013-03-31 00:39:00,33.1,32.6,29.94,WSW,248,2.0,2.5,98,0.00,,,0.00,VWS V14.01,2013-03-31 05:39:00,
2013-03-31 00:40:00,33.1,32.6,29.94,West,270,1.3,3.6,98,0.00,,,0.00,VWS V14.01,2013-03-31 05:40:00,
2013-03-31 00:41:00,33.1,32.6,29.94,WSW,248,2.0,3.6,98,0.00,,,0.00,VWS V14.01,2013-03-31 05:41:00,
2013-03-31 00:42:00,33.1,32.6,29.94,WNW,292,1.3,3.4,98,0.00,,,0.00,VWS V14.01,2013-03-31 05:42:00,
2013-03-31 00:43:00,33.1,32.6,29.94,West,270,0.9,1.6,98,0.00,,,0.00,VWS V14.01,2013-03-31 05:43:00,
2013-03-31 00:44:00,33.1,32.6,29.94,WSW,248,3.1,3.6,98,0.00,,,0.00,VWS V14.01,2013-03-31 05:44:00,
2013-03-31 00:45:00,33.1,32.6,29.94,WSW,248,2.0,2.5,98,0.00,,,0.00,VWS V14.01,2013-03-31 05:45:00,
2013-03-31 00:46:00,32.9,32.4,29.94,West,270,0.9,2.5,98,0.00,,,0.00,VWS V14.01,2013-03-31 05:46:00,
2013-03-31 00:47:00,32.9,32.4,29.94,WSW,248,1.3,1.3,98,0.00,,,0.00,VWS V14.01,2013-03-31 05:47:00,
2013-03-31 00:48:00,32.9,32.4,29.94,West,270,1.3,2.9,98,0.00,,,0.00,VWS V14.01,2013-03-31 05:48:00,
2013-03-31 00:49:00,32.9,32.4,29.94,SSW,202,2.7,2.7,98,0.00,,,0.00,VWS V14.01,2013-03-31 05:49:00,
2013-03-31 00:50:00,32.9,32.4,29.94,SSW,202,2.2,2.2,98,0.00,,,0.00,VWS V14.01,2013-03-31 05:50:00,
2013-03-31 00:51:00,32.9,32.4,29.94,SSW,202,2.9,3.4,98,0.00,,,0.00,VWS V14.01,2013-03-31 05:51:00,
2013-03-31 00:52:00,32.9,32.4,29.94,WSW,248,1.6,3.4,98,0.00,,,0.00,VWS V14.01,2013-03-31 05:52:00,
2013-03-31 00:53:00,32.9,32.4,29.94,SSE,158,4.0,4.0,98,0.00,,,0.00,VWS V14.01,2013-03-31 05:53:00,
2013-03-31 00:54:00,32.9,32.4,29.94,SSE,158,4.0,4.0,98,0.00,,,0.00,VWS V14.01,2013-03-31 05:54:00,
2013-03-31 00:55:00,33.1,32.6,29.94,WSW,248,1.6,2.2,98,0.00,,,0.00,VWS V14.01,2013-03-31 05:55:00,
2013-03-31 00:56:00,32.9,32.4,29.94,WSW,248,2.7,2.7,98,0.00,,,0.00,VWS V14.01,2013-03-31 05:56:00,
2013-03-31 00:57:00,32.9,32.4,29.94,WNW,292,3.4,3.4,98,0.00,,,0.00,VWS V14.01,2013-03-31 05:57:00,
2013-03-31 00:58:00,32.9,32.4,29.94,NNW,338,2.2,3.4,98,0.00,,,0.00,VWS V14.01,2013-03-31 05:58:00,
2013-03-31 00:59:00,32.9,32.4,29.94,West,270,3.1,3.1,98,0.00,,,0.00,VWS V14.01,2013-03-31 05:59:00,
2013-03-31 01:00:00,32.9,32.4,29.94,WSW,248,1.1,2.0,98,0.00,,,0.00,VWS V14.01,2013-03-31 06:00:00,
2013-03-31 01:01:00,32.9,32.4,29.94,WSW,248,1.1,2.0,98,0.00,,,0.00,VWS V14.01,2013-03-31 06:01:00,
2013-03-31 01:02:00,32.7,32.2,29.94,West,270,0.9,2.9,98,0.00,,,0.00,VWS V14.01,2013-03-31 06:02:00,
2013-03-31 01:03:00,32.7,32.2,29.94,West,270,2.0,2.2,98,0.00,,,0.00,VWS V14.01,2013-03-31 06:03:00,
2013-03-31 01:04:00,32.7,32.2,29.94,West,270,2.7,2.7,98,0.00,,,0.00,VWS V14.01,2013-03-31 06:04:00,
2013-03-31 01:05:00,32.7,32.2,29.94,WSW,248,2.7,2.7,98,0.00,,,0.00,VWS V14.01,2013-03-31 06:05:00,
2013-03-31 01:06:00,32.7,32.2,29.94,WNW,292,2.9,2.9,98,0.00,,,0.00,VWS V14.01,2013-03-31 06:06:00,
2013-03-31 01:07:00,32.7,32.2,29.94,WSW,248,1.6,2.9,98,0.00,,,0.00,VWS V14.01,2013-03-31 06:07:00,
2013-03-31 01:08:00,32.7,32.2,29.94,WNW,292,3.6,4.0,98,0.00,,,0.00,VWS V14.01,2013-03-31 06:08:00,
2013-03-31 01:09:00,32.7,32.2,29.94,WSW,248,2.7,3.6,98,0.00,,,0.00,VWS V14.01,2013-03-31 06:09:00,
2013-03-31 01:10:00,32.7,32.2,29.94,West,270,2.9,2.9,98,0.00,,,0.00,VWS V14.01,2013-03-31 06:10:00,
2013-03-31 01:11:00,32.7,32.2,29.94,SW,225,2.9,2.9,98,0.00,,,0.00,VWS V14.01,2013-03-31 06:11:00,
2013-03-31 01:12:00,32.7,32.2,29.94,WSW,248,2.7,2.9,98,0.00,,,0.00,VWS V14.01,2013-03-31 06:12:00,
2013-03-31 01:13:00,32.7,32.2,29.94,WSW,248,2.5,3.4,98,0.00,,,0.00,VWS V14.01,2013-03-31 06:13:00,
2013-03-31 01:14:00,32.7,32.2,29.94,WSW,248,2.5,2.5,98,0.00,,,0.00,VWS V14.01,2013-03-31 06:14:00,
2013-03-31 01:15:00,32.7,32.2,29.94,SW,225,2.9,3.6,98,0.00,,,0.00,VWS V14.01,2013-03-31 06:15:00,
2013-03-31 01:16:00,32.7,32.2,29.94,SW,225,2.9,3.6,98,0.00,,,0.00,VWS V14.01,2013-03-31 06:16:00,
2013-03-31 01:17:00,32.7,32.2,29.94,SW,225,2.9,2.9,98,0.00,,,0.00,VWS V14.01,2013-03-31 06:17:00,
2013-03-31 01:18:00,32.7,32.2,29.94,SW,225,4.0,4.0,98,0.00,,,0.00,VWS V14.01,2013-03-31 06:18:00,
2013-03-31 01:19:00,32.7,32.2,29.94,West,270,3.1,4.0,98,0.00,,,0.00,VWS V14.01,2013-03-31 06:19:00,
2013-03-31 01:20:00,32.7,32.2,29.94,WSW,248,3.4,5.4,98,0.00,,,0.00,VWS V14.01,2013-03-31 06:20:00,
2013-03-31 01:21:00,32.7,32.2,29.94,SW,225,1.6,5.4,98,0.00,,,0.00,VWS V14.01,2013-03-31 06:21:00,
2013-03-31 01:22:00,32.7,32.2,29.94,SW,225,3.1,3.4,98,0.00,,,0.00,VWS V14.01,2013-03-31 06:22:00,
2013-03-31 01:23:00,32.7,32.2,29.94,WNW,292,2.5,3.4,98,0.00,,,0.00,VWS V14.01,2013-03-31 06:23:00,
2013-03-31 01:24:00,32.7,32.2,29.94,WSW,248,2.7,3.8,98,0.00,,,0.00,VWS V14.01,2013-03-31 06:24:00,
2013-03-31 01:25:00,32.7,32.2,29.94,SW,225,1.6,1.6,98,0.00,,,0.00,VWS V14.01,2013-03-31 06:25:00,
2013-03-31 01:26:00,32.7,32.2,29.94,West,270,3.8,3.8,98,0.00,,,0.00,VWS V14.01,2013-03-31 06:26:00,
2013-03-31 01:27:00,32.5,32.0,29.94,WSW,248,2.5,3.8,98,0.00,,,0.00,VWS V14.01,2013-03-31 06:27:00,
2013-03-31 01:28:00,32.5,32.0,29.94,SSW,202,3.6,3.6,98,0.00,,,0.00,VWS V14.01,2013-03-31 06:28:00,
2013-03-31 01:29:00,32.5,32.0,29.94,West,270,1.6,3.6,98,0.00,,,0.00,VWS V14.01,2013-03-31 06:29:00,
2013-03-31 01:30:00,32.5,32.0,29.94,SSW,202,2.0,2.0,98,0.00,,,0.00,VWS V14.01,2013-03-31 06:30:00,
2013-03-31 01:31:00,32.5,32.0,29.94,WNW,292,3.6,3.6,98,0.00,,,0.00,VWS V14.01,2013-03-31 06:31:00,
2013-03-31 01:32:00,32.5,32.0,29.94,WSW,248,2.0,3.6,98,0.00,,,0.00,VWS V14.01,2013-03-31 06:32:00,
2013-03-31 01:33:00,32.5,32.0,29.94,SSW,202,3.1,3.1,98,0.00,,,0.00,VWS V14.01,2013-03-31 06:33:00,
2013-03-31 01:34:00,32.5,32.0,29.94,WNW,292,2.0,3.1,98,0.00,,,0.00,VWS V14.01,2013-03-31 06:34:00,
2013-03-31 01:35:00,32.5,32.0,29.94,West,270,1.6,2.0,98,0.00,,,0.00,VWS V14.01,2013-03-31 06:35:00,
2013-03-31 01:36:00,32.5,32.0,29.94,WSW,248,2.5,3.1,98,0.00,,,0.00,VWS V14.01,2013-03-31 06:36:00,
2013-03-31 01:37:00,32.5,32.0,29.94,SSE,158,2.5,4.0,98,0.00,,,0.00,VWS V14.01,2013-03-31 06:37:00,
2013-03-31 01:38:00,32.5,32.0,29.94,WSW,248,2.2,2.5,98,0.00,,,0.00,VWS V14.01,2013-03-31 06:38:00,
2013-03-31 01:39:00,32.5,32.0,29.94,WSW,248,2.0,2.5,98,0.00,,,0.00,VWS V14.01,2013-03-31 06:39:00,
2013-03-31 01:40:00,32.5,32.0,29.94,WSW,248,2.7,2.9,98,0.00,,,0.00,VWS V14.01,2013-03-31 06:40:00,
2013-03-31 01:41:00,32.5,32.0,29.94,NW,315,0.0,2.9,98,0.00,,,0.00,VWS V14.01,2013-03-31 06:41:00,
2013-03-31 01:42:00,32.5,32.0,29.94,WNW,292,2.7,2.7,98,0.00,,,0.00,VWS V14.01,2013-03-31 06:42:00,
2013-03-31 01:43:00,32.5,32.0,29.94,WSW,248,3.6,3.6,98,0.00,,,0.00,VWS V14.01,2013-03-31 06:43:00,
2013-03-31 01:44:00,32.5,32.0,29.94,WSW,248,2.9,3.6,98,0.00,,,0.00,VWS V14.01,2013-03-31 06:44:00,
2013-03-31 01:45:00,32.5,32.0,29.94,West,270,4.3,4.3,98,0.00,,,0.00,VWS V14.01,2013-03-31 06:45:00,
2013-03-31 01:46:00,32.5,32.0,29.94,SSW,202,3.8,4.3,98,0.00,,,0.00,VWS V14.01,2013-03-31 06:46:00,
2013-03-31 01:47:00,32.5,32.0,29.94,SW,225,2.0,3.8,98,0.00,,,0.00,VWS V14.01,2013-03-31 06:47:00,
2013-03-31 01:48:00,32.5,32.0,29.94,WSW,248,2.0,2.0,98,0.00,,,0.00,VWS V14.01,2013-03-31 06:48:00,
2013-03-31 01:49:00,32.5,32.0,29.94,SSW,202,2.2,2.7,98,0.00,,,0.00,VWS V14.01,2013-03-31 06:49:00,
2013-03-31 01:50:00,32.7,32.2,29.94,SSW,202,3.4,3.4,98,0.00,,,0.00,VWS V14.01,2013-03-31 06:50:00,
2013-03-31 01:51:00,32.7,32.2,29.94,SSW,202,2.0,3.6,98,0.00,,,0.00,VWS V14.01,2013-03-31 06:51:00,
2013-03-31 01:52:00,32.7,32.2,29.94,SSW,202,2.7,3.1,98,0.00,,,0.00,VWS V14.01,2013-03-31 06:52:00,
2013-03-31 01:53:00,32.7,32.2,29.94,WSW,248,4.0,4.0,98,0.00,,,0.00,VWS V14.01,2013-03-31 06:53:00,
2013-03-31 01:54:00,32.7,32.2,29.94,SW,225,1.3,4.0,98,0.00,,,0.00,VWS V14.01,2013-03-31 06:54:00,
2013-03-31 01:55:00,32.7,32.2,29.94,WNW,292,2.5,2.5,98,0.00,,,0.00,VWS V14.01,2013-03-31 06:55:00,
2013-03-31 01:56:00,32.7,32.2,29.94,WNW,292,1.3,2.5,98,0.00,,,0.00,VWS V14.01,2013-03-31 06:56:00,
2013-03-31 01:57:00,32.7,32.2,29.94,WSW,248,2.2,3.4,98,0.00,,,0.00,VWS V14.01,2013-03-31 06:57:00,
2013-03-31 01:58:00,32.7,32.2,29.94,SW,225,2.0,2.2,98,0.00,,,0.00,VWS V14.01,2013-03-31 06:58:00,
2013-03-31 01:59:00,32.7,32.2,29.94,SSW,202,3.1,3.1,98,0.00,,,0.00,VWS V14.01,2013-03-31 06:59:00,
2013-03-31 02:00:00,32.7,32.2,29.91,SSW,202,3.1,3.1,98,0.00,,,0.00,VWS V14.01,2013-03-31 07:00:00,
2013-03-31 02:01:00,32.7,32.2,29.91,WSW,248,2.5,3.1,98,0.00,,,0.00,VWS V14.01,2013-03-31 07:01:00,
2013-03-31 02:02:00,32.5,32.0,29.91,WSW,248,2.0,2.9,98,0.00,,,0.00,VWS V14.01,2013-03-31 07:02:00,
2013-03-31 02:03:00,32.5,32.0,29.91,SSW,202,1.3,2.0,98,0.00,,,0.00,VWS V14.01,2013-03-31 07:03:00,
2013-03-31 02:04:00,32.5,32.0,29.91,NW,315,1.1,3.4,98,0.00,,,0.00,VWS V14.01,2013-03-31 07:04:00,
2013-03-31 02:05:00,32.5,32.0,29.91,WSW,248,2.7,2.7,98,0.00,,,0.00,VWS V14.01,2013-03-31 07:05:00,
2013-03-31 02:06:00,32.5,32.0,29.91,South,180,1.6,2.7,98,0.00,,,0.00,VWS V14.01,2013-03-31 07:06:00,
2013-03-31 02:07:00,32.5,32.0,29.91,SSE,158,1.1,2.2,98,0.00,,,0.00,VWS V14.01,2013-03-31 07:07:00,
2013-03-31 02:08:00,32.5,32.0,29.91,SSW,202,2.0,2.0,98,0.00,,,0.00,VWS V14.01,2013-03-31 07:08:00,
2013-03-31 02:09:00,32.5,32.0,29.91,South,180,1.6,2.0,98,0.00,,,0.00,VWS V14.01,2013-03-31 07:09:00,
2013-03-31 02:10:00,32.5,32.0,29.91,WNW,292,3.8,3.8,98,0.00,,,0.00,VWS V14.01,2013-03-31 07:10:00,
2013-03-31 02:11:00,32.5,32.0,29.91,WNW,292,3.8,3.8,98,0.00,,,0.00,VWS V14.01,2013-03-31 07:11:00,
2013-03-31 02:12:00,32.7,32.2,29.91,SSW,202,2.5,3.8,98,0.00,,,0.00,VWS V14.01,2013-03-31 07:12:00,
2013-03-31 02:13:00,32.7,32.2,29.91,West,270,2.5,2.9,98,0.00,,,0.00,VWS V14.01,2013-03-31 07:13:00,
2013-03-31 02:14:00,32.5,32.0,29.91,West,270,2.5,3.4,98,0.00,,,0.00,VWS V14.01,2013-03-31 07:14:00,
2013-03-31 02:15:00,32.7,32.2,29.91,West,270,2.9,2.9,98,0.00,,,0.00,VWS V14.01,2013-03-31 07:15:00,
2013-03-31 02:16:00,32.7,32.2,29.91,WSW,248,2.0,3.6,98,0.00,,,0.00,VWS V14.01,2013-03-31 07:16:00,
2013-03-31 02:17:00,32.7,32.2,29.91,SSW,202,2.7,2.7,98,0.00,,,0.00,VWS V14.01,2013-03-31 07:17:00,
2013-03-31 02:18:00,32.7,32.2,29.91,SSW,202,3.4,3.4,98,0.00,,,0.00,VWS V14.01,2013-03-31 07:18:00,
2013-03-31 02:19:00,32.7,32.2,29.91,WSW,248,1.1,3.4,98,0.00,,,0.00,VWS V14.01,2013-03-31 07:19:00,
2013-03-31 02:20:00,32.7,32.2,29.91,SSW,202,2.9,2.9,98,0.00,,,0.00,VWS V14.01,2013-03-31 07:20:00,
2013-03-31 02:21:00,32.7,32.2,29.91,WSW,248,3.4,3.4,98,0.00,,,0.00,VWS V14.01,2013-03-31 07:21:00,
2013-03-31 02:22:00,32.7,32.2,29.91,WSW,248,3.6,3.6,98,0.00,,,0.00,VWS V14.01,2013-03-31 07:22:00,
2013-03-31 02:23:00,32.7,32.2,29.91,SSW,202,2.0,3.6,98,0.00,,,0.00,VWS V14.01,2013-03-31 07:23:00,
2013-03-31 02:24:00,32.7,32.2,29.91,WSW,248,0.0,2.0,98,0.00,,,0.00,VWS V14.01,2013-03-31 07:24:00,
2013-03-31 02:25:00,32.7,32.2,29.91,WSW,248,2.0,2.5,98,0.00,,,0.00,VWS V14.01,2013-03-31 07:25:00,
2013-03-31 02:26:00,32.7,32.2,29.91,WSW,248,1.6,2.5,98,0.00,,,0.00,VWS V14.01,2013-03-31 07:26:00,
2013-03-31 02:28:00,32.7,32.2,29.91,WSW,248,2.0,3.4,98,0.00,,,0.00,VWS V14.01,2013-03-31 07:28:00,
2013-03-31 02:29:00,32.7,32.2,29.91,WSW,248,3.1,3.8,98,0.00,,,0.00,VWS V14.01,2013-03-31 07:29:00,
2013-03-31 02:30:00,32.7,32.2,29.91,SW,225,2.5,2.5,98,0.00,,,0.00,VWS V14.01,2013-03-31 07:30:00,
2013-03-31 02:31:00,32.7,32.2,29.91,SW,225,2.5,2.5,98,0.00,,,0.00,VWS V14.01,2013-03-31 07:31:00,
2013-03-31 02:32:00,32.7,32.2,29.91,WSW,248,4.0,5.6,98,0.00,,,0.00,VWS V14.01,2013-03-31 07:32:00,
2013-03-31 02:33:00,32.7,32.2,29.91,WSW,248,3.8,4.0,98,0.00,,,0.00,VWS V14.01,2013-03-31 07:33:00,
2013-03-31 02:34:00,32.7,32.2,29.91,WSW,248,3.6,3.8,98,0.00,,,0.00,VWS V14.01,2013-03-31 07:34:00,
2013-03-31 02:35:00,32.9,32.4,29.91,West,270,2.9,3.6,98,0.00,,,0.00,VWS V14.01,2013-03-31 07:35:00,
2013-03-31 02:36:00,32.9,32.4,29.91,West,270,3.6,3.6,98,0.00,,,0.00,VWS V14.01,2013-03-31 07:36:00,
2013-03-31 02:37:00,32.9,32.4,29.91,West,270,4.3,4.3,98,0.00,,,0.00,VWS V14.01,2013-03-31 07:37:00,
2013-03-31 02:38:00,32.9,32.4,29.91,WSW,248,1.6,4.9,98,0.00,,,0.00,VWS V14.01,2013-03-31 07:38:00,
2013-03-31 02:39:00,32.9,32.4,29.91,WSW,248,4.0,4.0,98,0.00,,,0.00,VWS V14.01,2013-03-31 07:39:00,
2013-03-31 02:40:00,32.9,32.4,29.91,West,270,3.4,4.0,98,0.00,,,0.00,VWS V14.01,2013-03-31 07:40:00,
2013-03-31 02:41:00,32.9,32.4,29.91,WSW,248,3.4,4.0,98,0.00,,,0.00,VWS V14.01,2013-03-31 07:41:00,
2013-03-31 02:42:00,32.9,32.4,29.91,WNW,292,4.3,4.3,98,0.00,,,0.00,VWS V14.01,2013-03-31 07:42:00,
2013-03-31 02:43:00,32.9,32.4,29.91,WNW,292,4.0,4.3,98,0.00,,,0.00,VWS V14.01,2013-03-31 07:43:00,
2013-03-31 02:44:00,32.9,32.4,29.91,WSW,248,3.6,4.0,98,0.00,,,0.00,VWS V14.01,2013-03-31 07:44:00,
2013-03-31 02:45:00,32.9,32.4,29.91,WSW,248,5.4,5.4,98,0.00,,,0.00,VWS V14.01,2013-03-31 07:45:00,
2013-03-31 02:46:00,32.9,32.4,29.91,WNW,292,2.7,2.7,98,0.00,,,0.00,VWS V14.01,2013-03-31 07:46:00,
2013-03-31 02:47:00,32.9,32.4,29.91,NW,315,1.3,2.7,98,0.00,,,0.00,VWS V14.01,2013-03-31 07:47:00,
2013-03-31 02:48:00,32.9,32.4,29.91,WSW,248,2.9,3.4,98,0.00,,,0.00,VWS V14.01,2013-03-31 07:48:00,
2013-03-31 02:49:00,32.9,32.4,29.91,West,270,3.4,3.4,98,0.00,,,0.00,VWS V14.01,2013-03-31 07:49:00,
2013-03-31 02:50:00,32.9,32.4,29.91,SSW,202,1.1,3.4,98,0.00,,,0.00,VWS V14.01,2013-03-31 07:50:00,
2013-03-31 02:51:00,32.9,32.4,29.91,West,270,0.9,0.9,98,0.00,,,0.00,VWS V14.01,2013-03-31 07:51:00,
2013-03-31 02:52:00,32.9,32.4,29.91,WSW,248,1.6,2.9,98,0.00,,,0.00,VWS V14.01,2013-03-31 07:52:00,
2013-03-31 02:53:00,32.9,32.4,29.91,WSW,248,3.8,3.8,98,0.00,,,0.00,VWS V14.01,2013-03-31 07:53:00,
2013-03-31 02:54:00,32.9,32.4,29.91,WNW,292,3.1,3.8,98,0.00,,,0.00,VWS V14.01,2013-03-31 07:54:00,
2013-03-31 02:55:00,32.7,32.2,29.91,WSW,248,2.9,3.1,98,0.00,,,0.00,VWS V14.01,2013-03-31 07:55:00,
2013-03-31 02:56:00,32.7,32.0,29.91,SSW,202,2.9,2.9,97,0.00,,,0.00,VWS V14.01,2013-03-31 07:56:00,
2013-03-31 02:57:00,32.7,32.0,29.91,SSW,202,3.4,3.4,97,0.00,,,0.00,VWS V14.01,2013-03-31 07:57:00,
2013-03-31 02:58:00,32.7,32.0,29.91,WSW,248,1.6,4.7,97,0.00,,,0.00,VWS V14.01,2013-03-31 07:58:00,
2013-03-31 02:59:00,32.7,32.0,29.91,WSW,248,2.5,2.5,97,0.00,,,0.00,VWS V14.01,2013-03-31 07:59:00,
2013-03-31 03:00:00,32.7,32.0,29.91,SW,225,2.7,4.3,97,0.00,,,0.00,VWS V14.01,2013-03-31 08:00:00,
2013-03-31 03:01:00,32.7,32.0,29.88,WSW,248,1.6,3.4,97,0.00,,,0.00,VWS V14.01,2013-03-31 08:01:00,
2013-03-31 03:02:00,32.7,32.0,29.88,WNW,292,3.8,3.8,97,0.00,,,0.00,VWS V14.01,2013-03-31 08:02:00,
2013-03-31 03:03:00,32.7,32.0,29.88,West,270,4.3,4.5,97,0.00,,,0.00,VWS V14.01,2013-03-31 08:03:00,
2013-03-31 03:04:00,32.7,32.0,29.88,West,270,3.1,4.3,97,0.00,,,0.00,VWS V14.01,2013-03-31 08:04:00,
2013-03-31 03:05:00,32.5,31.8,29.88,WNW,292,2.2,3.1,97,0.00,,,0.00,VWS V14.01,2013-03-31 08:05:00,
2013-03-31 03:06:00,32.5,31.8,29.88,West,270,0.9,2.2,97,0.00,,,0.00,VWS V14.01,2013-03-31 08:06:00,
2013-03-31 03:07:00,32.5,31.8,29.88,West,270,3.4,3.4,97,0.00,,,0.00,VWS V14.01,2013-03-31 08:07:00,
2013-03-31 03:08:00,32.5,31.8,29.88,NNW,338,3.1,3.6,97,0.00,,,0.00,VWS V14.01,2013-03-31 08:08:00,
2013-03-31 03:09:00,32.5,31.8,29.88,NW,315,0.9,3.1,97,0.00,,,0.00,VWS V14.01,2013-03-31 08:09:00,
2013-03-31 03:10:00,32.5,31.8,29.88,WSW,248,3.6,3.6,97,0.00,,,0.00,VWS V14.01,2013-03-31 08:10:00,
2013-03-31 03:11:00,32.5,31.8,29.88,NNW,338,1.1,3.6,97,0.00,,,0.00,VWS V14.01,2013-03-31 08:11:00,
2013-03-31 03:12:00,32.5,31.8,29.88,WSW,248,3.1,3.4,97,0.00,,,0.00,VWS V14.01,2013-03-31 08:12:00,
2013-03-31 03:13:00,32.5,31.8,29.88,WSW,248,2.7,3.6,97,0.00,,,0.00,VWS V14.01,2013-03-31 08:13:00,
2013-03-31 03:14:00,32.5,31.8,29.88,SW,225,1.6,3.6,97,0.00,,,0.00,VWS V14.01,2013-03-31 08:14:00,
2013-03-31 03:15:00,32.4,31.6,29.88,SSW,202,3.1,3.1,97,0.00,,,0.00,VWS V14.01,2013-03-31 08:15:00,
2013-03-31 03:16:00,32.4,31.6,29.88,SSW,202,3.6,3.6,97,0.00,,,0.00,VWS V14.01,2013-03-31 08:16:00,
2013-03-31 03:17:00,32.4,31.6,29.88,SSW,202,3.6,3.6,97,0.00,,,0.00,VWS V14.01,2013-03-31 08:17:00,
2013-03-31 03:19:00,32.4,31.6,29.88,WSW,248,2.0,3.6,97,0.00,,,0.00,VWS V14.01,2013-03-31 08:19:00,
2013-03-31 03:20:00,32.4,31.6,29.88,West,270,3.8,3.8,97,0.00,,,0.00,VWS V14.01,2013-03-31 08:20:00,
2013-03-31 03:21:00,32.4,31.6,29.88,West,270,2.9,3.8,97,0.00,,,0.00,VWS V14.01,2013-03-31 08:21:00,
2013-03-31 03:22:00,32.4,31.6,29.88,WSW,248,2.9,2.9,97,0.00,,,0.00,VWS V14.01,2013-03-31 08:22:00,
2013-03-31 03:23:00,32.4,31.6,29.88,WNW,292,4.3,4.3,97,0.00,,,0.00,VWS V14.01,2013-03-31 08:23:00,
2013-03-31 03:24:00,32.4,31.6,29.88,WNW,292,5.8,5.8,97,0.00,,,0.00,VWS V14.01,2013-03-31 08:24:00,
2013-03-31 03:25:00,32.4,31.6,29.88,WSW,248,2.9,5.8,97,0.00,,,0.00,VWS V14.01,2013-03-31 08:25:00,
2013-03-31 03:26:00,32.4,31.6,29.88,WSW,248,4.0,5.8,97,0.00,,,0.00,VWS V14.01,2013-03-31 08:26:00,
2013-03-31 03:28:00,32.5,31.8,29.88,West,270,2.7,2.9,97,0.00,,,0.00,VWS V14.01,2013-03-31 08:28:00,
2013-03-31 03:29:00,32.5,31.8,29.88,SSW,202,3.4,3.4,97,0.00,,,0.00,VWS V14.01,2013-03-31 08:29:00,
2013-03-31 03:30:00,32.5,31.8,29.91,West,270,4.3,4.9,97,0.00,,,0.00,VWS V14.01,2013-03-31 08:30:00,
2013-03-31 03:31:00,32.5,31.8,29.91,WNW,292,3.4,4.3,97,0.00,,,0.00,VWS V14.01,2013-03-31 08:31:00,
2013-03-31 03:32:00,32.5,31.8,29.91,WSW,248,1.6,3.4,97,0.00,,,0.00,VWS V14.01,2013-03-31 08:32:00,
2013-03-31 03:33:00,32.5,31.8,29.91,WSW,248,4.7,6.3,97,0.00,,,0.00,VWS V14.01,2013-03-31 08:33:00,
2013-03-31 03:35:00,32.5,31.8,29.91,West,270,2.7,4.7,97,0.00,,,0.00,VWS V14.01,2013-03-31 08:35:00,
2013-03-31 03:36:00,32.5,31.8,29.91,WNW,292,2.0,2.7,97,0.00,,,0.00,VWS V14.01,2013-03-31 08:36:00,
2013-03-31 03:37:00,32.5,31.8,29.91,West,270,2.5,4.3,97,0.00,,,0.00,VWS V14.01,2013-03-31 08:37:00,
2013-03-31 03:38:00,32.5,31.8,29.91,WNW,292,3.4,3.4,97,0.00,,,0.00,VWS V14.01,2013-03-31 08:38:00,
2013-03-31 03:39:00,32.5,31.8,29.91,WNW,292,3.8,4.7,97,0.00,,,0.00,VWS V14.01,2013-03-31 08:39:00,
2013-03-31 03:40:00,32.5,32.0,29.91,WNW,292,6.0,7.4,98,0.00,,,0.00,VWS V14.01,2013-03-31 08:40:00,
2013-03-31 03:41:00,32.7,32.2,29.91,West,270,3.6,6.5,98,0.00,,,0.00,VWS V14.01,2013-03-31 08:41:00,
2013-03-31 03:43:00,32.7,32.2,29.91,WSW,248,6.0,6.0,98,0.00,,,0.00,VWS V14.01,2013-03-31 08:43:00,
2013-03-31 03:44:00,32.7,32.2,29.91,SSW,202,5.6,6.0,98,0.00,,,0.00,VWS V14.01,2013-03-31 08:44:00,
2013-03-31 03:45:00,32.7,32.2,29.91,West,270,4.3,5.6,98,0.00,,,0.00,VWS V14.01,2013-03-31 08:45:00,
2013-03-31 03:46:00,32.7,32.2,29.91,NNW,338,6.5,6.5,98,0.00,,,0.00,VWS V14.01,2013-03-31 08:46:00,
2013-03-31 03:47:00,32.7,32.2,29.91,SW,225,4.0,6.5,98,0.00,,,0.00,VWS V14.01,2013-03-31 08:47:00,
2013-03-31 03:48:00,32.7,32.2,29.91,SSW,202,3.8,4.0,98,0.00,,,0.00,VWS V14.01,2013-03-31 08:48:00,
2013-03-31 03:49:00,32.7,32.2,29.91,WNW,292,7.2,7.2,98,0.00,,,0.00,VWS V14.01,2013-03-31 08:49:00,
2013-03-31 03:50:00,32.7,32.2,29.91,WNW,292,2.7,7.2,98,0.00,,,0.00,VWS V14.01,2013-03-31 08:50:00,
2013-03-31 03:51:00,32.7,32.2,29.91,NNW,338,1.6,2.7,98,0.00,,,0.00,VWS V14.01,2013-03-31 08:51:00,
2013-03-31 03:52:00,32.7,32.2,29.91,SSW,202,2.7,2.7,98,0.00,,,0.00,VWS V14.01,2013-03-31 08:52:00,
2013-03-31 03:53:00,32.7,32.2,29.91,West,270,4.0,4.0,98,0.00,,,0.00,VWS V14.01,2013-03-31 08:53:00,
2013-03-31 03:54:00,32.7,32.2,29.91,WNW,292,4.7,4.7,98,0.00,,,0.00,VWS V14.01,2013-03-31 08:54:00,
2013-03-31 03:55:00,32.7,32.2,29.91,WSW,248,2.7,4.7,98,0.00,,,0.00,VWS V14.01,2013-03-31 08:55:00,
2013-03-31 03:56:00,32.7,32.2,29.91,WNW,292,4.9,4.9,98,0.00,,,0.00,VWS V14.01,2013-03-31 08:56:00,
2013-03-31 03:57:00,32.7,32.2,29.91,NW,315,1.6,4.9,98,0.00,,,0.00,VWS V14.01,2013-03-31 08:57:00,
2013-03-31 03:58:00,32.7,32.2,29.91,West,270,2.9,2.9,98,0.00,,,0.00,VWS V14.01,2013-03-31 08:58:00,
2013-03-31 03:59:00,32.7,32.2,29.91,SSW,202,4.3,4.3,98,0.00,,,0.00,VWS V14.01,2013-03-31 08:59:00,
2013-03-31 04:00:00,32.7,32.2,29.91,West,270,5.4,5.4,98,0.00,,,0.00,VWS V14.01,2013-03-31 09:00:00,
2013-03-31 04:01:00,32.7,32.2,29.91,West,270,4.0,5.4,98,0.00,,,0.00,VWS V14.01,2013-03-31 09:01:00,
2013-03-31 04:02:00,32.7,32.2,29.91,NW,315,6.5,6.5,98,0.00,,,0.00,VWS V14.01,2013-03-31 09:02:00,
2013-03-31 04:03:00,32.7,32.2,29.91,NNW,338,2.9,6.5,98,0.00,,,0.00,VWS V14.01,2013-03-31 09:03:00,
2013-03-31 04:05:00,32.7,32.2,29.91,WSW,248,5.8,5.8,98,0.00,,,0.00,VWS V14.01,2013-03-31 09:05:00,
2013-03-31 04:06:00,32.7,32.2,29.91,WNW,292,3.4,5.8,98,0.00,,,0.00,VWS V14.01,2013-03-31 09:06:00,
2013-03-31 04:07:00,32.7,32.2,29.91,NNW,338,4.7,4.7,98,0.00,,,0.00,VWS V14.01,2013-03-31 09:07:00,
2013-03-31 04:08:00,32.7,32.2,29.91,West,270,4.3,4.7,98,0.00,,,0.00,VWS V14.01,2013-03-31 09:08:00,
2013-03-31 04:09:00,32.7,32.2,29.91,WNW,292,4.3,4.3,98,0.00,,,0.00,VWS V14.01,2013-03-31 09:09:00,
2013-03-31 04:10:00,32.7,32.2,29.91,WNW,292,3.8,4.3,98,0.00,,,0.00,VWS V14.01,2013-03-31 09:10:00,
2013-03-31 04:11:00,32.9,32.4,29.91,WSW,248,6.0,6.0,98,0.00,,,0.00,VWS V14.01,2013-03-31 09:11:00,
2013-03-31 04:12:00,32.9,32.4,29.91,West,270,4.7,6.0,98,0.00,,,0.00,VWS V14.01,2013-03-31 09:12:00,
2013-03-31 04:13:00,32.9,32.4,29.91,WNW,292,6.0,6.0,98,0.00,,,0.00,VWS V14.01,2013-03-31 09:13:00,
2013-03-31 04:14:00,32.9,32.4,29.91,West,270,3.4,6.0,98,0.00,,,0.00,VWS V14.01,2013-03-31 09:14:00,
2013-03-31 04:15:00,32.9,32.4,29.91,WSW,248,4.3,4.3,98,0.00,,,0.00,VWS V14.01,2013-03-31 09:15:00,
2013-03-31 04:16:00,32.9,32.4,29.91,WNW,292,3.4,4.3,98,0.00,,,0.00,VWS V14.01,2013-03-31 09:16:00,
2013-03-31 04:17:00,32.9,32.4,29.91,NW,315,2.9,3.4,98,0.00,,,0.00,VWS V14.01,2013-03-31 09:17:00,
2013-03-31 10:01:00,32.9,32.4,29.91,NNW,338,9.8,9.8,98,0.00,,,0.00,VWS V14.01,2013-03-31 15:01:00,
2013-03-31 10:03:00,36.1,30.0,29.91,West,270,7.8,9.8,78,0.00,,,0.17,VWS V14.01,2013-03-31 15:03:00,
2013-03-31 10:04:00,36.1,30.0,29.88,WNW,292,10.3,10.3,78,0.00,,,0.17,VWS V14.01,2013-03-31 15:04:00,
2013-03-31 10:05:00,36.1,30.0,29.88,NW,315,4.9,10.3,78,0.00,,,0.17,VWS V14.01,2013-03-31 15:05:00,
2013-03-31 10:06:00,36.1,30.0,29.88,NNW,338,5.8,7.8,78,0.00,,,0.17,VWS V14.01,2013-03-31 15:06:00,
2013-03-31 10:07:00,36.1,30.0,29.88,NNW,338,2.7,7.8,78,0.00,,,0.17,VWS V14.01,2013-03-31 15:07:00,
2013-03-31 10:08:00,36.1,30.0,29.88,NW,315,4.7,5.6,78,0.00,,,0.17,VWS V14.01,2013-03-31 15:08:00,
2013-03-31 10:09:00,36.1,30.0,29.88,West,270,6.3,6.5,78,0.00,,,0.17,VWS V14.01,2013-03-31 15:09:00,
2013-03-31 10:10:00,36.1,30.0,29.88,NW,315,5.6,6.3,78,0.00,,,0.17,VWS V14.01,2013-03-31 15:10:00,
2013-03-31 10:11:00,36.1,30.0,29.88,WNW,292,7.4,8.7,78,0.00,,,0.17,VWS V14.01,2013-03-31 15:11:00,
2013-03-31 10:12:00,36.1,30.0,29.88,WNW,292,6.3,8.7,78,0.00,,,0.17,VWS V14.01,2013-03-31 15:12:00,
2013-03-31 10:14:00,36.3,30.1,29.88,West,270,6.0,6.0,78,0.00,,,0.17,VWS V14.01,2013-03-31 15:14:00,
2013-03-31 10:15:00,36.3,30.1,29.91,NNE,22,4.7,7.2,78,0.00,,,0.17,VWS V14.01,2013-03-31 15:15:00,
2013-03-31 10:16:00,36.3,30.1,29.91,WNW,292,4.9,7.8,78,0.00,,,0.17,VWS V14.01,2013-03-31 15:16:00,
2013-03-31 10:17:00,36.3,30.1,29.91,NNW,338,4.3,4.9,78,0.00,,,0.17,VWS V14.01,2013-03-31 15:17:00,
2013-03-31 10:18:00,36.3,30.1,29.91,WNW,292,5.8,8.5,78,0.00,,,0.17,VWS V14.01,2013-03-31 15:18:00,
2013-03-31 10:19:00,36.3,30.1,29.91,NNW,338,6.7,8.1,78,0.00,,,0.17,VWS V14.01,2013-03-31 15:19:00,
2013-03-31 10:20:00,36.3,30.1,29.91,NNW,338,7.4,7.4,78,0.00,,,0.17,VWS V14.01,2013-03-31 15:20:00,
2013-03-31 10:21:00,36.3,29.8,29.91,NNW,338,9.0,9.0,77,0.00,,,0.17,VWS V14.01,2013-03-31 15:21:00,
2013-03-31 10:22:00,36.3,29.8,29.91,WNW,292,8.5,9.0,77,0.00,,,0.17,VWS V14.01,2013-03-31 15:22:00,
2013-03-31 10:23:00,36.3,29.8,29.91,WNW,292,4.3,6.0,77,0.00,,,0.17,VWS V14.01,2013-03-31 15:23:00,
2013-03-31 10:24:00,36.3,29.8,29.91,NNW,338,8.5,10.1,77,0.00,,,0.17,VWS V14.01,2013-03-31 15:24:00,
2013-03-31 10:25:00,36.1,29.6,29.91,WNW,292,7.6,8.7,77,0.00,,,0.17,VWS V14.01,2013-03-31 15:25:00,
2013-03-31 10:26:00,36.1,29.6,29.91,West,270,5.6,7.6,77,0.00,,,0.17,VWS V14.01,2013-03-31 15:26:00,
2013-03-31 10:27:00,36.1,29.6,29.91,WNW,292,5.8,7.4,77,0.00,,,0.17,VWS V14.01,2013-03-31 15:27:00,
2013-03-31 10:28:00,36.1,29.6,29.91,WNW,292,9.6,9.6,77,0.00,,,0.17,VWS V14.01,2013-03-31 15:28:00,
2013-03-31 10:29:00,36.1,29.6,29.91,WNW,292,7.6,9.6,77,0.00,,,0.17,VWS V14.01,2013-03-31 15:29:00,
2013-03-31 10:30:00,36.3,29.8,29.91,North,0,8.7,8.7,77,0.00,,,0.17,VWS V14.01,2013-03-31 15:30:00,
2013-03-31 10:32:00,36.3,29.8,29.91,NNW,338,6.3,8.7,77,0.00,,,0.17,VWS V14.01,2013-03-31 15:32:00,
2013-03-31 10:33:00,36.3,29.8,29.91,WNW,292,4.0,7.6,77,0.00,,,0.17,VWS V14.01,2013-03-31 15:33:00,
2013-03-31 10:34:00,36.3,29.8,29.91,NNE,22,9.6,9.6,77,0.00,,,0.17,VWS V14.01,2013-03-31 15:34:00,
2013-03-31 10:35:00,36.3,29.8,29.91,WNW,292,7.2,9.6,77,0.00,,,0.17,VWS V14.01,2013-03-31 15:35:00,
2013-03-31 10:36:00,36.5,29.7,29.91,NNW,338,8.7,8.7,76,0.00,,,0.17,VWS V14.01,2013-03-31 15:36:00,
2013-03-31 10:37:00,36.5,29.7,29.91,WNW,292,13.2,13.2,76,0.00,,,0.17,VWS V14.01,2013-03-31 15:37:00,
2013-03-31 10:38:00,36.5,29.7,29.91,NNW,338,6.0,13.2,76,0.00,,,0.17,VWS V14.01,2013-03-31 15:38:00,
2013-03-31 10:39:00,36.7,29.8,29.91,WNW,292,11.0,11.0,76,0.00,,,0.17,VWS V14.01,2013-03-31 15:39:00,
2013-03-31 10:40:00,36.7,29.8,29.91,NNW,338,7.8,14.5,76,0.00,,,0.17,VWS V14.01,2013-03-31 15:40:00,
2013-03-31 10:41:00,36.7,29.5,29.91,North,0,7.8,10.1,75,0.00,,,0.17,VWS V14.01,2013-03-31 15:41:00,
2013-03-31 10:42:00,36.9,29.7,29.91,NW,315,8.7,8.7,75,0.00,,,0.17,VWS V14.01,2013-03-31 15:42:00,
2013-03-31 10:43:00,36.9,29.7,29.91,SSW,202,7.8,9.8,75,0.00,,,0.17,VWS V14.01,2013-03-31 15:43:00,
2013-03-31 10:45:00,37.0,29.5,29.91,WNW,292,5.6,5.6,74,0.00,,,0.17,VWS V14.01,2013-03-31 15:45:00,
2013-03-31 10:47:00,36.9,29.4,29.91,NNW,338,9.2,10.3,74,0.00,,,0.17,VWS V14.01,2013-03-31 15:47:00,
2013-03-31 10:49:00,36.9,29.4,29.91,North,0,5.6,7.6,74,0.00,,,0.17,VWS V14.01,2013-03-31 15:49:00,
2013-03-31 10:50:00,36.9,29.4,29.91,WNW,292,5.8,10.1,74,0.00,,,0.17,VWS V14.01,2013-03-31 15:50:00,
2013-03-31 10:52:00,36.9,29.0,29.91,WNW,292,5.4,11.0,73,0.00,,,0.17,VWS V14.01,2013-03-31 15:52:00,
2013-03-31 10:53:00,36.9,29.4,29.91,WNW,292,6.7,6.7,74,0.00,,,0.17,VWS V14.01,2013-03-31 15:53:00,
2013-03-31 10:54:00,36.9,29.0,29.91,North,0,7.6,8.7,73,0.00,,,0.17,VWS V14.01,2013-03-31 15:54:00,
2013-03-31 10:55:00,36.9,29.0,29.91,NNW,338,8.5,10.5,73,0.00,,,0.17,VWS V14.01,2013-03-31 15:55:00,
2013-03-31 10:56:00,36.9,29.0,29.91,NW,315,6.3,11.4,73,0.00,,,0.17,VWS V14.01,2013-03-31 15:56:00,
2013-03-31 10:57:00,36.9,29.0,29.91,NW,315,7.4,7.4,73,0.00,,,0.17,VWS V14.01,2013-03-31 15:57:00,
2013-03-31 10:58:00,37.0,29.2,29.91,NNW,338,6.3,7.4,73,0.00,,,0.17,VWS V14.01,2013-03-31 15:58:00,
2013-03-31 10:59:00,37.4,29.5,29.91,NW,315,3.4,6.3,73,0.00,,,0.17,VWS V14.01,2013-03-31 15:59:00,
2013-03-31 11:01:00,37.6,29.7,29.91,NNW,338,6.3,8.7,73,0.00,,,0.17,VWS V14.01,2013-03-31 16:01:00,
2013-03-31 11:02:00,37.8,29.6,29.91,NNW,338,3.8,9.6,72,0.00,,,0.17,VWS V14.01,2013-03-31 16:02:00,
2013-03-31 11:03:00,37.9,29.7,29.91,NW,315,6.0,8.1,72,0.00,,,0.17,VWS V14.01,2013-03-31 16:03:00,
2013-03-31 11:04:00,37.9,29.4,29.91,NNW,338,10.3,10.3,71,0.00,,,0.17,VWS V14.01,2013-03-31 16:04:00,
2013-03-31 11:05:00,37.9,29.0,29.91,NNW,338,6.5,10.3,70,0.00,,,0.17,VWS V14.01,2013-03-31 16:05:00,
2013-03-31 11:06:00,37.8,28.9,29.91,NNW,338,10.7,10.7,70,0.00,,,0.17,VWS V14.01,2013-03-31 16:06:00,
2013-03-31 11:07:00,37.6,28.4,29.91,NNW,338,5.8,11.0,69,0.00,,,0.17,VWS V14.01,2013-03-31 16:07:00,
2013-03-31 11:08:00,37.8,28.9,29.91,NW,315,8.7,8.7,70,0.00,,,0.17,VWS V14.01,2013-03-31 16:08:00,
2013-03-31 11:09:00,37.8,28.9,29.91,NNW,338,10.3,10.3,70,0.00,,,0.17,VWS V14.01,2013-03-31 16:09:00,
2013-03-31 11:10:00,37.6,28.7,29.91,NNW,338,12.1,12.1,70,0.00,,,0.17,VWS V14.01,2013-03-31 16:10:00,
2013-03-31 11:11:00,37.6,28.4,29.91,NNW,338,8.1,12.8,69,0.00,,,0.17,VWS V14.01,2013-03-31 16:11:00,
2013-03-31 11:12:00,37.8,28.5,29.91,WNW,292,10.7,10.7,69,0.00,,,0.17,VWS V14.01,2013-03-31 16:12:00,
2013-03-31 11:13:00,37.8,28.5,29.91,NW,315,5.4,10.7,69,0.00,,,0.17,VWS V14.01,2013-03-31 16:13:00,
2013-03-31 11:14:00,37.8,28.5,29.91,NNW,338,10.1,11.2,69,0.00,,,0.17,VWS V14.01,2013-03-31 16:14:00,
2013-03-31 11:16:00,37.6,28.0,29.91,West,270,9.0,9.8,68,0.00,,,0.17,VWS V14.01,2013-03-31 16:16:00,
2013-03-31 11:17:00,37.6,27.6,29.91,WNW,292,7.6,7.6,67,0.00,,,0.17,VWS V14.01,2013-03-31 16:17:00,
2013-03-31 11:19:00,37.8,27.8,29.91,NW,315,6.9,6.9,67,0.00,,,0.17,VWS V14.01,2013-03-31 16:19:00,
2013-03-31 11:20:00,37.8,27.8,29.91,WNW,292,10.7,10.7,67,0.00,,,0.17,VWS V14.01,2013-03-31 16:20:00,
2013-03-31 11:21:00,37.8,27.4,29.91,NW,315,11.9,12.5,66,0.00,,,0.17,VWS V14.01,2013-03-31 16:21:00,
2013-03-31 11:22:00,37.6,27.3,29.91,NNW,338,7.2,12.5,66,0.00,,,0.17,VWS V14.01,2013-03-31 16:22:00,
2013-03-31 11:25:00,37.8,27.1,29.91,NNW,338,7.8,14.5,65,0.00,,,0.17,VWS V14.01,2013-03-31 16:25:00,
2013-03-31 11:26:00,38.3,27.2,29.91,WNW,292,9.6,10.1,64,0.00,,,0.17,VWS V14.01,2013-03-31 16:26:00,
2013-03-31 11:27:00,38.7,27.5,29.91,WNW,292,9.8,10.1,64,0.00,,,0.17,VWS V14.01,2013-03-31 16:27:00,
2013-03-31 11:28:00,38.7,27.5,29.91,NW,315,10.1,10.1,64,0.00,,,0.17,VWS V14.01,2013-03-31 16:28:00,
2013-03-31 11:29:00,38.7,27.5,29.91,NW,315,8.7,10.1,64,0.00,,,0.17,VWS V14.01,2013-03-31 16:29:00,
2013-03-31 11:30:00,38.7,27.2,29.91,NNW,338,8.7,9.4,63,0.00,,,0.17,VWS V14.01,2013-03-31 16:30:00,
2013-03-31 11:31:00,38.7,27.2,29.91,West,270,13.2,13.2,63,0.00,,,0.17,VWS V14.01,2013-03-31 16:31:00,
2013-03-31 11:32:00,38.7,27.2,29.91,WNW,292,13.0,13.2,63,0.00,,,0.17,VWS V14.01,2013-03-31 16:32:00,
2013-03-31 11:33:00,38.7,27.2,29.91,WNW,292,11.2,13.0,63,0.00,,,0.17,VWS V14.01,2013-03-31 16:33:00,
2013-03-31 11:34:00,38.1,25.9,29.91,NNW,338,10.3,13.0,61,0.00,,,0.17,VWS V14.01,2013-03-31 16:34:00,
2013-03-31 11:35:00,38.1,25.9,29.91,North,0,12.8,14.8,61,0.00,,,0.17,VWS V14.01,2013-03-31 16:35:00,
2013-03-31 11:36:00,38.1,25.9,29.91,NNE,22,10.7,12.8,61,0.00,,,0.17,VWS V14.01,2013-03-31 16:36:00,
2013-03-31 11:37:00,38.1,25.9,29.91,NNW,338,6.0,7.8,61,0.00,,,0.17,VWS V14.01,2013-03-31 16:37:00,
2013-03-31 11:38:00,38.1,25.9,29.91,NNW,338,10.3,14.8,61,0.00,,,0.17,VWS V14.01,2013-03-31 16:38:00,
2013-03-31 11:39:00,38.3,26.0,29.91,NW,315,9.6,16.1,61,0.00,,,0.17,VWS V14.01,2013-03-31 16:39:00,
2013-03-31 11:40:00,38.3,26.0,29.91,WNW,292,7.8,11.0,61,0.00,,,0.17,VWS V14.01,2013-03-31 16:40:00,
2013-03-31 11:42:00,38.5,25.4,29.91,NNW,338,17.5,17.5,59,0.00,,,0.17,VWS V14.01,2013-03-31 16:42:00,
2013-03-31 11:43:00,38.5,25.4,29.91,WNW,292,13.0,17.5,59,0.00,,,0.17,VWS V14.01,2013-03-31 16:43:00,
2013-03-31 11:44:00,38.8,25.3,29.91,NNW,338,8.7,13.0,58,0.00,,,0.17,VWS V14.01,2013-03-31 16:44:00,
2013-03-31 11:45:00,39.4,25.9,29.88,WNW,292,11.0,13.0,58,0.00,,,0.17,VWS V14.01,2013-03-31 16:45:00,
2013-03-31 11:46:00,39.9,25.9,29.88,NNW,338,8.5,11.0,57,0.00,,,0.17,VWS V14.01,2013-03-31 16:46:00,
2013-03-31 11:47:00,39.9,25.9,29.88,North,0,17.5,17.5,57,0.00,,,0.17,VWS V14.01,2013-03-31 16:47:00,
2013-03-31 11:48:00,39.7,25.3,29.88,NNW,338,11.0,17.5,56,0.00,,,0.17,VWS V14.01,2013-03-31 16:48:00,
2013-03-31 11:49:00,39.6,24.7,29.88,NW,315,14.8,14.8,55,0.00,,,0.17,VWS V14.01,2013-03-31 16:49:00,
2013-03-31 11:50:00,39.6,24.7,29.88,NNW,338,10.7,10.7,55,0.00,,,0.17,VWS V14.01,2013-03-31 16:50:00,
2013-03-31 11:51:00,39.4,24.6,29.88,NNW,338,10.3,10.7,55,0.00,,,0.17,VWS V14.01,2013-03-31 16:51:00,
2013-03-31 11:52:00,39.6,24.7,29.88,NW,315,13.6,13.6,55,0.00,,,0.17,VWS V14.01,2013-03-31 16:52:00,
2013-03-31 11:53:00,39.4,24.6,29.88,NNE,22,12.5,13.6,55,0.00,,,0.17,VWS V14.01,2013-03-31 16:53:00,
2013-03-31 11:55:00,39.4,24.6,29.88,NNW,338,11.9,12.5,55,0.00,,,0.17,VWS V14.01,2013-03-31 16:55:00,
2013-03-31 11:56:00,40.1,25.2,29.88,NNW,338,17.2,17.2,55,0.00,,,0.17,VWS V14.01,2013-03-31 16:56:00,
2013-03-31 11:58:00,40.5,25.1,29.88,NW,315,10.3,10.7,54,0.00,,,0.17,VWS V14.01,2013-03-31 16:58:00,
2013-03-31 11:59:00,40.3,25.0,29.88,NNW,338,13.0,13.0,54,0.00,,,0.17,VWS V14.01,2013-03-31 16:59:00,
2013-03-31 12:00:00,40.1,24.4,29.91,NNE,22,10.3,13.0,53,0.00,,,0.17,VWS V14.01,2013-03-31 17:00:00,
2013-03-31 12:01:00,40.1,24.4,29.91,NNE,22,9.8,10.3,53,0.00,,,0.17,VWS V14.01,2013-03-31 17:01:00,
2013-03-31 12:03:00,40.1,24.4,29.91,NNW,338,13.0,13.0,53,0.00,,,0.17,VWS V14.01,2013-03-31 17:03:00,
2013-03-31 12:04:00,40.3,24.5,29.91,NNW,338,10.3,13.0,53,0.00,,,0.17,VWS V14.01,2013-03-31 17:04:00,
2013-03-31 12:05:00,40.3,24.5,29.91,NNE,22,7.4,10.3,53,0.00,,,0.17,VWS V14.01,2013-03-31 17:05:00,
2013-03-31 12:06:00,40.5,24.7,29.91,NNW,338,10.3,10.3,53,0.00,,,0.17,VWS V14.01,2013-03-31 17:06:00,
2013-03-31 12:07:00,40.5,24.7,29.91,NW,315,12.3,12.3,53,0.00,,,0.17,VWS V14.01,2013-03-31 17:07:00,
2013-03-31 12:09:00,40.6,24.9,29.91,NW,315,11.2,11.2,53,0.00,,,0.17,VWS V14.01,2013-03-31 17:09:00,
2013-03-31 12:10:00,41.2,24.9,29.91,NNW,338,15.2,15.2,52,0.00,,,0.17,VWS V14.01,2013-03-31 17:10:00,
2013-03-31 12:11:00,41.4,24.6,29.91,NW,315,15.4,15.4,51,0.00,,,0.17,VWS V14.01,2013-03-31 17:11:00,
2013-03-31 12:12:00,41.5,24.8,29.91,NW,315,15.4,15.4,51,0.00,,,0.17,VWS V14.01,2013-03-31 17:12:00,
2013-03-31 12:13:00,41.5,24.3,29.91,WNW,292,10.5,15.4,50,0.00,,,0.17,VWS V14.01,2013-03-31 17:13:00,
2013-03-31 12:14:00,41.7,24.9,29.91,NNW,338,10.7,10.7,51,0.00,,,0.17,VWS V14.01,2013-03-31 17:14:00,
2013-03-31 12:15:00,41.4,24.1,29.91,WNW,292,9.6,10.7,50,0.00,,,0.17,VWS V14.01,2013-03-31 17:15:00,
2013-03-31 12:16:00,41.2,24.4,29.91,North,0,12.5,12.5,51,0.00,,,0.17,VWS V14.01,2013-03-31 17:16:00,
2013-03-31 12:17:00,40.6,23.9,29.91,NNW,338,17.0,17.0,51,0.00,,,0.17,VWS V14.01,2013-03-31 17:17:00,
2013-03-31 12:18:00,40.5,23.8,29.91,NNW,338,16.8,17.0,51,0.00,,,0.17,VWS V14.01,2013-03-31 17:18:00,
2013-03-31 12:19:00,40.6,23.9,29.91,WNW,292,10.3,16.8,51,0.00,,,0.17,VWS V14.01,2013-03-31 17:19:00,
2013-03-31 12:20:00,40.3,23.6,29.91,NNW,338,14.3,14.3,51,0.00,,,0.17,VWS V14.01,2013-03-31 17:20:00,
2013-03-31 12:22:00,40.3,23.1,29.91,NNW,338,11.9,17.2,50,0.00,,,0.17,VWS V14.01,2013-03-31 17:22:00,
2013-03-31 12:24:00,41.0,23.8,29.91,NNW,338,15.9,15.9,50,0.00,,,0.17,VWS V14.01,2013-03-31 17:24:00,
2013-03-31 12:25:00,41.0,23.8,29.91,NNW,338,19.5,19.5,50,0.00,,,0.17,VWS V14.01,2013-03-31 17:25:00,
2013-03-31 12:26:00,41.0,23.8,29.91,North,0,12.5,19.5,50,0.00,,,0.17,VWS V14.01,2013-03-31 17:26:00,
2013-03-31 12:27:00,41.4,24.1,29.91,NNW,338,15.2,15.2,50,0.00,,,0.17,VWS V14.01,2013-03-31 17:27:00,
2013-03-31 12:28:00,41.4,24.1,29.91,NNW,338,13.6,15.2,50,0.00,,,0.17,VWS V14.01,2013-03-31 17:28:00,
2013-03-31 12:29:00,41.4,24.1,29.91,NNW,338,12.3,13.6,50,0.00,,,0.17,VWS V14.01,2013-03-31 17:29:00,
2013-03-31 12:30:00,41.9,24.6,29.88,NNW,338,8.7,12.3,50,0.00,,,0.17,VWS V14.01,2013-03-31 17:30:00,
2013-03-31 12:31:00,41.9,24.1,29.88,North,0,10.5,10.5,49,0.00,,,0.17,VWS V14.01,2013-03-31 17:31:00,
2013-03-31 12:32:00,42.3,24.5,29.88,NNW,338,9.6,10.5,49,0.00,,,0.17,VWS V14.01,2013-03-31 17:32:00,
2013-03-31 12:33:00,41.7,24.0,29.88,NNW,338,12.8,12.8,49,0.00,,,0.17,VWS V14.01,2013-03-31 17:33:00,
2013-03-31 12:34:00,41.2,23.5,29.88,NNW,338,7.8,12.8,49,0.00,,,0.17,VWS V14.01,2013-03-31 17:34:00,
2013-03-31 12:35:00,41.0,23.3,29.88,NNW,338,9.8,9.8,49,0.00,,,0.17,VWS V14.01,2013-03-31 17:35:00,
2013-03-31 12:36:00,41.0,23.3,29.88,NNW,338,9.8,9.8,49,0.00,,,0.17,VWS V14.01,2013-03-31 17:36:00,
2013-03-31 12:37:00,41.0,23.3,29.88,North,0,7.6,9.8,49,0.00,,,0.17,VWS V14.01,2013-03-31 17:37:00,
2013-03-31 12:38:00,42.4,24.6,29.88,NNW,338,8.5,8.5,49,0.00,,,0.17,VWS V14.01,2013-03-31 17:38:00,
2013-03-31 12:39:00,42.8,25.0,29.88,NNW,338,6.0,8.5,49,0.00,,,0.17,VWS V14.01,2013-03-31 17:39:00,
2013-03-31 12:42:00,41.5,23.3,29.88,NNW,338,12.3,14.8,48,0.00,,,0.17,VWS V14.01,2013-03-31 17:42:00,
2013-03-31 12:43:00,41.0,22.8,29.88,NNW,338,8.7,12.3,48,0.00,,,0.17,VWS V14.01,2013-03-31 17:43:00,
2013-03-31 12:44:00,40.6,23.0,29.88,NNE,22,11.9,11.9,49,0.00,,,0.17,VWS V14.01,2013-03-31 17:44:00,
2013-03-31 12:45:00,40.3,22.7,29.91,NNW,338,9.8,11.9,49,0.00,,,0.17,VWS V14.01,2013-03-31 17:45:00,
2013-03-31 12:46:00,40.6,23.0,29.91,NNE,22,7.8,9.8,49,0.00,,,0.17,VWS V14.01,2013-03-31 17:46:00,
2013-03-31 12:47:00,41.0,22.8,29.91,NNW,338,10.1,10.1,48,0.00,,,0.17,VWS V14.01,2013-03-31 17:47:00,
2013-03-31 12:48:00,40.6,22.5,29.91,NNW,338,14.5,14.5,48,0.00,,,0.17,VWS V14.01,2013-03-31 17:48:00,
2013-03-31 12:49:00,40.3,22.2,29.91,NNW,338,15.4,15.4,48,0.00,,,0.17,VWS V14.01,2013-03-31 17:49:00,
2013-03-31 12:52:00,40.5,22.3,29.91,NW,315,11.0,11.4,48,0.00,,,0.17,VWS V14.01,2013-03-31 17:52:00,
2013-03-31 12:53:00,40.1,22.0,29.91,NW,315,10.1,11.0,48,0.00,,,0.17,VWS V14.01,2013-03-31 17:53:00,
2013-03-31 12:54:00,40.3,22.2,29.91,NNW,338,8.1,10.1,48,0.00,,,0.17,VWS V14.01,2013-03-31 17:54:00,
2013-03-31 12:55:00,40.3,22.2,29.91,NNW,338,7.6,8.1,48,0.00,,,0.17,VWS V14.01,2013-03-31 17:55:00,
2013-03-31 12:56:00,40.3,21.7,29.91,NNW,338,13.2,13.2,47,0.00,,,0.17,VWS V14.01,2013-03-31 17:56:00,
2013-03-31 12:57:00,40.1,21.5,29.91,NNW,338,7.8,13.2,47,0.00,,,0.17,VWS V14.01,2013-03-31 17:57:00,
2013-03-31 12:59:00,39.7,20.7,29.91,NNW,338,8.1,12.8,46,0.00,,,0.17,VWS V14.01,2013-03-31 17:59:00,
2013-03-31 13:00:00,39.7,20.7,29.91,NW,315,12.5,12.5,46,0.00,,,0.17,VWS V14.01,2013-03-31 18:00:00,